Year,Month,Day,Hour,Minute,Value (Times are PST for temperature in C)
2018,04,26,00,00,11.00
2018,04,26,00,01,11.00
2018,04,26,00,02,10.90
2018,04,26,00,03,10.90
2018,04,26,00,04,10.80
2018,04,26,00,05,10.80
2018,04,26,00,06,10.80
2018,04,26,00,07,10.70
2018,04,26,00,08,10.70
2018,04,26,00,09,10.70
2018,04,26,00,10,10.60
2018,04,26,00,11,10.60
2018,04,26,00,12,10.60
2018,04,26,00,13,10.60
2018,04,26,00,14,10.60
2018,04,26,00,15,10.50
2018,04,26,00,16,10.50
2018,04,26,00,17,10.40
2018,04,26,00,18,10.40
2018,04,26,00,19,10.40
2018,04,26,00,20,10.40
2018,04,26,00,21,10.40
2018,04,26,00,22,10.30
2018,04,26,00,23,10.30
2018,04,26,00,24,10.30
2018,04,26,00,25,10.40
2018,04,26,00,26,10.40
2018,04,26,00,27,10.30
2018,04,26,00,28,10.30
2018,04,26,00,29,10.30
2018,04,26,00,30,10.20
2018,04,26,00,31,10.20
2018,04,26,00,32,10.20
2018,04,26,00,33,10.20
2018,04,26,00,34,10.20
2018,04,26,00,35,10.20
2018,04,26,00,36,10.10
2018,04,26,00,37,10.10
2018,04,26,00,38,10.10
2018,04,26,00,39,10.10
2018,04,26,00,40,10.10
2018,04,26,00,41,10.00
2018,04,26,00,42,10.00
2018,04,26,00,43,10.00
2018,04,26,00,44,9.90
2018,04,26,00,45,9.90
2018,04,26,00,46,9.90
2018,04,26,00,47,9.80
2018,04,26,00,48,9.80
2018,04,26,00,49,9.80
2018,04,26,00,50,9.80
2018,04,26,00,51,9.80
2018,04,26,00,52,9.80
2018,04,26,00,53,9.70
2018,04,26,00,54,9.70
2018,04,26,00,55,9.70
2018,04,26,00,56,9.70
2018,04,26,00,57,9.70
2018,04,26,00,58,9.70
2018,04,26,00,59,9.60
2018,04,26,01,00,9.60
2018,04,26,01,01,9.60
2018,04,26,01,02,9.60
2018,04,26,01,03,9.50
2018,04,26,01,04,9.50
2018,04,26,01,05,9.50
2018,04,26,01,06,9.50
2018,04,26,01,07,9.50
2018,04,26,01,08,9.40
2018,04,26,01,09,9.40
2018,04,26,01,10,9.40
2018,04,26,01,11,9.40
2018,04,26,01,12,9.30
2018,04,26,01,13,9.30
2018,04,26,01,14,9.30
2018,04,26,01,15,9.20
2018,04,26,01,16,9.20
2018,04,26,01,17,9.20
2018,04,26,01,18,9.20
2018,04,26,01,19,9.20
2018,04,26,01,20,9.20
2018,04,26,01,21,9.20
2018,04,26,01,22,9.20
2018,04,26,01,23,9.20
2018,04,26,01,24,9.10
2018,04,26,01,25,9.10
2018,04,26,01,26,9.10
2018,04,26,01,27,9.10
2018,04,26,01,28,9.10
2018,04,26,01,29,9.00
2018,04,26,01,30,9.00
2018,04,26,01,31,8.90
2018,04,26,01,32,8.90
2018,04,26,01,33,8.90
2018,04,26,01,34,8.90
2018,04,26,01,35,8.90
2018,04,26,01,36,8.90
2018,04,26,01,37,8.90
2018,04,26,01,38,8.80
2018,04,26,01,39,8.80
2018,04,26,01,40,8.80
2018,04,26,01,41,8.80
2018,04,26,01,42,8.70
2018,04,26,01,43,8.70
2018,04,26,01,44,8.70
2018,04,26,01,45,8.70
2018,04,26,01,46,8.70
2018,04,26,01,47,8.70
2018,04,26,01,48,8.60
2018,04,26,01,49,8.60
2018,04,26,01,50,8.60
2018,04,26,01,51,8.60
2018,04,26,01,52,8.50
2018,04,26,01,53,8.50
2018,04,26,01,54,8.40
2018,04,26,01,55,8.40
2018,04,26,01,56,8.40
2018,04,26,01,57,8.40
2018,04,26,01,58,8.40
2018,04,26,01,59,8.30
2018,04,26,02,00,8.30
2018,04,26,02,01,8.30
2018,04,26,02,02,8.20
2018,04,26,02,03,8.20
2018,04,26,02,04,8.20
2018,04,26,02,05,8.10
2018,04,26,02,06,8.10
2018,04,26,02,07,8.10
2018,04,26,02,08,8.10
2018,04,26,02,09,8.10
2018,04,26,02,10,8.10
2018,04,26,02,11,8.10
2018,04,26,02,12,8.10
2018,04,26,02,13,8.10
2018,04,26,02,14,8.10
2018,04,26,02,15,8.20
2018,04,26,02,16,8.20
2018,04,26,02,17,8.20
2018,04,26,02,18,8.20
2018,04,26,02,19,8.10
2018,04,26,02,20,8.10
2018,04,26,02,21,8.10
2018,04,26,02,22,8.00
2018,04,26,02,23,8.00
2018,04,26,02,24,8.00
2018,04,26,02,25,8.00
2018,04,26,02,26,8.00
2018,04,26,02,27,8.00
2018,04,26,02,28,8.10
2018,04,26,02,29,8.00
2018,04,26,02,30,8.00
2018,04,26,02,31,8.00
2018,04,26,02,32,8.00
2018,04,26,02,33,7.90
2018,04,26,02,34,7.90
2018,04,26,02,35,7.80
2018,04,26,02,36,7.80
2018,04,26,02,37,7.80
2018,04,26,02,38,7.70
2018,04,26,02,39,7.70
2018,04,26,02,40,7.70
2018,04,26,02,41,7.70
2018,04,26,02,42,7.70
2018,04,26,02,43,7.70
2018,04,26,02,44,7.70
2018,04,26,02,45,7.70
2018,04,26,02,46,7.70
2018,04,26,02,47,7.70
2018,04,26,02,48,7.70
2018,04,26,02,49,7.70
2018,04,26,02,50,7.70
2018,04,26,02,51,7.70
2018,04,26,02,52,7.70
2018,04,26,02,53,7.70
2018,04,26,02,54,7.70
2018,04,26,02,55,7.70
2018,04,26,02,56,7.70
2018,04,26,02,57,7.70
2018,04,26,02,58,7.70
2018,04,26,02,59,7.70
2018,04,26,03,00,7.70
2018,04,26,03,01,7.60
2018,04,26,03,02,7.60
2018,04,26,03,03,7.60
2018,04,26,03,04,7.60
2018,04,26,03,05,7.60
2018,04,26,03,06,7.60
2018,04,26,03,07,7.60
2018,04,26,03,08,7.50
2018,04,26,03,09,7.50
2018,04,26,03,10,7.50
2018,04,26,03,11,7.40
2018,04,26,03,12,7.40
2018,04,26,03,13,7.40
2018,04,26,03,14,7.40
2018,04,26,03,15,7.40
2018,04,26,03,16,7.40
2018,04,26,03,17,7.30
2018,04,26,03,18,7.30
2018,04,26,03,19,7.30
2018,04,26,03,20,7.30
2018,04,26,03,21,7.30
2018,04,26,03,22,7.30
2018,04,26,03,23,7.30
2018,04,26,03,24,7.30
2018,04,26,03,25,7.20
2018,04,26,03,26,7.20
2018,04,26,03,27,7.20
2018,04,26,03,28,7.20
2018,04,26,03,29,7.20
2018,04,26,03,30,7.20
2018,04,26,03,31,7.10
2018,04,26,03,32,7.10
2018,04,26,03,33,7.10
2018,04,26,03,34,7.10
2018,04,26,03,35,7.10
2018,04,26,03,36,7.10
2018,04,26,03,37,7.10
2018,04,26,03,38,7.10
2018,04,26,03,39,7.10
2018,04,26,03,40,7.10
2018,04,26,03,41,7.10
2018,04,26,03,42,7.10
2018,04,26,03,43,7.10
2018,04,26,03,44,7.10
2018,04,26,03,45,7.20
2018,04,26,03,46,7.20
2018,04,26,03,47,7.20
2018,04,26,03,48,7.20
2018,04,26,03,49,7.20
2018,04,26,03,50,7.10
2018,04,26,03,51,7.10
2018,04,26,03,52,7.10
2018,04,26,03,53,7.10
2018,04,26,03,54,7.10
2018,04,26,03,55,7.10
2018,04,26,03,56,7.00
2018,04,26,03,57,7.00
2018,04,26,03,58,7.00
2018,04,26,03,59,7.00
2018,04,26,04,00,7.00
2018,04,26,04,01,7.00
2018,04,26,04,02,7.00
2018,04,26,04,03,7.00
2018,04,26,04,04,7.00
2018,04,26,04,05,7.00
2018,04,26,04,06,7.00
2018,04,26,04,07,7.00
2018,04,26,04,08,7.00
2018,04,26,04,09,7.00
2018,04,26,04,10,7.00
2018,04,26,04,11,7.00
2018,04,26,04,12,6.90
2018,04,26,04,13,6.90
2018,04,26,04,14,6.90
2018,04,26,04,15,6.90
2018,04,26,04,16,6.80
2018,04,26,04,17,6.80
2018,04,26,04,18,6.80
2018,04,26,04,19,6.70
2018,04,26,04,20,6.70
2018,04,26,04,21,6.70
2018,04,26,04,22,6.70
2018,04,26,04,23,6.60
2018,04,26,04,24,6.60
2018,04,26,04,25,6.60
2018,04,26,04,26,6.60
2018,04,26,04,27,6.50
2018,04,26,04,28,6.50
2018,04,26,04,29,6.40
2018,04,26,04,30,6.40
2018,04,26,04,31,6.40
2018,04,26,04,32,6.30
2018,04,26,04,33,6.30
2018,04,26,04,34,6.30
2018,04,26,04,35,6.30
2018,04,26,04,36,6.30
2018,04,26,04,37,6.30
2018,04,26,04,38,6.30
2018,04,26,04,39,6.30
2018,04,26,04,40,6.30
2018,04,26,04,41,6.30
2018,04,26,04,42,6.30
2018,04,26,04,43,6.30
2018,04,26,04,44,6.20
2018,04,26,04,45,6.20
2018,04,26,04,46,6.20
2018,04,26,04,47,6.20
2018,04,26,04,48,6.20
2018,04,26,04,49,6.20
2018,04,26,04,50,6.10
2018,04,26,04,51,6.10
2018,04,26,04,52,6.10
2018,04,26,04,53,6.10
2018,04,26,04,54,6.10
2018,04,26,04,55,6.00
2018,04,26,04,56,6.00
2018,04,26,04,57,6.00
2018,04,26,04,58,5.90
2018,04,26,04,59,5.90
2018,04,26,05,00,5.90
2018,04,26,05,01,5.90
2018,04,26,05,02,5.90
2018,04,26,05,03,5.90
2018,04,26,05,04,5.90
2018,04,26,05,05,5.90
2018,04,26,05,06,5.90
2018,04,26,05,07,5.90
2018,04,26,05,08,5.90
2018,04,26,05,09,5.90
2018,04,26,05,10,5.90
2018,04,26,05,11,5.80
2018,04,26,05,12,5.80
2018,04,26,05,13,5.80
2018,04,26,05,14,5.80
2018,04,26,05,15,5.80
2018,04,26,05,16,5.80
2018,04,26,05,17,5.80
2018,04,26,05,18,5.80
2018,04,26,05,19,5.80
2018,04,26,05,20,5.80
2018,04,26,05,21,5.80
2018,04,26,05,22,5.80
2018,04,26,05,23,5.80
2018,04,26,05,24,5.80
2018,04,26,05,25,5.80
2018,04,26,05,26,5.80
2018,04,26,05,27,5.80
2018,04,26,05,28,5.80
2018,04,26,05,29,5.80
2018,04,26,05,30,5.80
2018,04,26,05,31,5.80
2018,04,26,05,32,5.80
2018,04,26,05,33,5.80
2018,04,26,05,34,5.80
2018,04,26,05,35,5.80
2018,04,26,05,36,5.80
2018,04,26,05,37,5.70
2018,04,26,05,38,5.80
2018,04,26,05,39,5.80
2018,04,26,05,40,5.80
2018,04,26,05,41,5.70
2018,04,26,05,42,5.70
2018,04,26,05,43,5.80
2018,04,26,05,44,5.70
2018,04,26,05,45,5.70
2018,04,26,05,46,5.70
2018,04,26,05,47,5.70
2018,04,26,05,48,5.70
2018,04,26,05,49,5.70
2018,04,26,05,50,5.70
2018,04,26,05,51,5.70
2018,04,26,05,52,5.70
2018,04,26,05,53,5.70
2018,04,26,05,54,5.70
2018,04,26,05,55,5.70
2018,04,26,05,56,5.70
2018,04,26,05,57,5.70
2018,04,26,05,58,5.80
2018,04,26,05,59,5.80
2018,04,26,06,00,5.80
2018,04,26,06,01,5.80
2018,04,26,06,02,5.80
2018,04,26,06,03,5.80
2018,04,26,06,04,5.80
2018,04,26,06,05,5.80
2018,04,26,06,06,5.80
2018,04,26,06,07,5.80
2018,04,26,06,08,5.80
2018,04,26,06,09,5.80
2018,04,26,06,10,5.80
2018,04,26,06,11,5.80
2018,04,26,06,12,5.80
2018,04,26,06,13,5.80
2018,04,26,06,14,5.80
2018,04,26,06,15,5.70
2018,04,26,06,16,5.70
2018,04,26,06,17,5.70
2018,04,26,06,18,5.70
2018,04,26,06,19,5.70
2018,04,26,06,20,5.70
2018,04,26,06,21,5.70
2018,04,26,06,22,5.70
2018,04,26,06,23,5.70
2018,04,26,06,24,5.70
2018,04,26,06,25,5.60
2018,04,26,06,26,5.60
2018,04,26,06,27,5.60
2018,04,26,06,28,5.60
2018,04,26,06,29,5.60
2018,04,26,06,30,5.60
2018,04,26,06,31,5.60
2018,04,26,06,32,5.60
2018,04,26,06,33,5.70
2018,04,26,06,34,5.70
2018,04,26,06,35,5.70
2018,04,26,06,36,5.70
2018,04,26,06,37,5.80
2018,04,26,06,38,5.80
2018,04,26,06,39,5.80
2018,04,26,06,40,5.80
2018,04,26,06,41,5.80
2018,04,26,06,42,5.90
2018,04,26,06,43,5.90
2018,04,26,06,44,5.90
2018,04,26,06,45,5.90
2018,04,26,06,46,5.90
2018,04,26,06,47,5.90
2018,04,26,06,48,5.80
2018,04,26,06,49,5.80
2018,04,26,06,50,5.80
2018,04,26,06,51,5.80
2018,04,26,06,52,5.80
2018,04,26,06,53,5.80
2018,04,26,06,54,5.90
2018,04,26,06,55,5.90
2018,04,26,06,56,5.90
2018,04,26,06,57,5.90
2018,04,26,06,58,6.00
2018,04,26,06,59,6.00
2018,04,26,07,00,6.10
2018,04,26,07,01,6.10
2018,04,26,07,02,6.20
2018,04,26,07,03,6.20
2018,04,26,07,04,6.20
2018,04,26,07,05,6.30
2018,04,26,07,06,6.30
2018,04,26,07,07,6.40
2018,04,26,07,08,6.40
2018,04,26,07,09,6.50
2018,04,26,07,10,6.50
2018,04,26,07,11,6.60
2018,04,26,07,12,6.60
2018,04,26,07,13,6.60
2018,04,26,07,14,6.70
2018,04,26,07,15,6.70
2018,04,26,07,16,6.70
2018,04,26,07,17,6.80
2018,04,26,07,18,6.80
2018,04,26,07,19,6.80
2018,04,26,07,20,6.80
2018,04,26,07,21,6.90
2018,04,26,07,22,6.90
2018,04,26,07,23,6.90
2018,04,26,07,24,7.00
2018,04,26,07,25,7.00
2018,04,26,07,26,7.10
2018,04,26,07,27,7.10
2018,04,26,07,28,7.20
2018,04,26,07,29,7.20
2018,04,26,07,30,7.30
2018,04,26,07,31,7.40
2018,04,26,07,32,7.40
2018,04,26,07,33,7.50
2018,04,26,07,34,7.60
2018,04,26,07,35,7.70
2018,04,26,07,36,7.80
2018,04,26,07,37,7.90
2018,04,26,07,38,8.00
2018,04,26,07,39,8.00
2018,04,26,07,40,8.10
2018,04,26,07,41,8.20
2018,04,26,07,42,8.30
2018,04,26,07,43,8.30
2018,04,26,07,44,8.40
2018,04,26,07,45,8.40
2018,04,26,07,46,8.50
2018,04,26,07,47,8.60
2018,04,26,07,48,8.70
2018,04,26,07,49,8.80
2018,04,26,07,50,8.80
2018,04,26,07,51,8.90
2018,04,26,07,52,9.00
2018,04,26,07,53,9.10
2018,04,26,07,54,9.10
2018,04,26,07,55,9.20
2018,04,26,07,56,9.30
2018,04,26,07,57,9.30
2018,04,26,07,58,9.40
2018,04,26,07,59,9.50
2018,04,26,08,00,9.50
2018,04,26,08,01,9.60
2018,04,26,08,02,9.60
2018,04,26,08,03,9.70
2018,04,26,08,04,9.70
2018,04,26,08,05,9.80
2018,04,26,08,06,9.80
2018,04,26,08,07,9.90
2018,04,26,08,08,10.00
2018,04,26,08,09,10.10
2018,04,26,08,10,10.20
2018,04,26,08,11,10.30
2018,04,26,08,12,10.40
2018,04,26,08,13,10.50
2018,04,26,08,14,10.60
2018,04,26,08,15,10.60
2018,04,26,08,16,10.70
2018,04,26,08,17,10.80
2018,04,26,08,18,10.90
2018,04,26,08,19,11.00
2018,04,26,08,20,11.10
2018,04,26,08,21,11.20
2018,04,26,08,22,11.30
2018,04,26,08,23,11.40
2018,04,26,08,24,11.50
2018,04,26,08,25,11.60
2018,04,26,08,26,11.70
2018,04,26,08,27,11.80
2018,04,26,08,28,11.90
2018,04,26,08,29,12.00
2018,04,26,08,30,12.10
2018,04,26,08,31,12.20
2018,04,26,08,32,12.30
2018,04,26,08,33,12.40
2018,04,26,08,34,12.50
2018,04,26,08,35,12.60
2018,04,26,08,36,12.70
2018,04,26,08,37,12.80
2018,04,26,08,38,12.90
2018,04,26,08,39,13.00
2018,04,26,08,40,13.10
2018,04,26,08,41,13.10
2018,04,26,08,42,13.20
2018,04,26,08,43,13.30
2018,04,26,08,44,13.40
2018,04,26,08,45,13.50
2018,04,26,08,46,13.50
2018,04,26,08,47,13.60
2018,04,26,08,48,13.70
2018,04,26,08,49,13.80
2018,04,26,08,50,13.80
2018,04,26,08,51,13.90
2018,04,26,08,52,14.00
2018,04,26,08,53,14.00
2018,04,26,08,54,14.10
2018,04,26,08,55,14.20
2018,04,26,08,56,14.20
2018,04,26,08,57,14.30
2018,04,26,08,58,14.30
2018,04,26,08,59,14.30
2018,04,26,09,00,14.30
2018,04,26,09,01,14.40
2018,04,26,09,02,14.40
2018,04,26,09,03,14.40
2018,04,26,09,04,14.40
2018,04,26,09,05,14.40
2018,04,26,09,06,14.50
2018,04,26,09,07,14.50
2018,04,26,09,08,14.50
2018,04,26,09,09,14.60
2018,04,26,09,10,14.60
2018,04,26,09,11,14.70
2018,04,26,09,12,14.80
2018,04,26,09,13,14.80
2018,04,26,09,14,14.90
2018,04,26,09,15,15.00
2018,04,26,09,16,15.10
2018,04,26,09,17,15.20
2018,04,26,09,18,15.20
2018,04,26,09,19,15.30
2018,04,26,09,20,15.40
2018,04,26,09,21,15.50
2018,04,26,09,22,15.60
2018,04,26,09,23,15.70
2018,04,26,09,24,15.80
2018,04,26,09,25,15.90
2018,04,26,09,26,16.00
2018,04,26,09,27,16.00
2018,04,26,09,28,16.10
2018,04,26,09,29,16.20
2018,04,26,09,30,16.30
2018,04,26,09,31,16.30
2018,04,26,09,32,16.40
2018,04,26,09,33,16.50
2018,04,26,09,34,16.60
2018,04,26,09,35,16.60
2018,04,26,09,36,16.70
2018,04,26,09,37,16.70
2018,04,26,09,38,16.80
2018,04,26,09,39,16.80
2018,04,26,09,40,16.90
2018,04,26,09,41,17.00
2018,04,26,09,42,17.00
2018,04,26,09,43,17.20
2018,04,26,09,44,17.30
2018,04,26,09,45,17.40
2018,04,26,09,46,17.50
2018,04,26,09,47,17.60
2018,04,26,09,48,17.70
2018,04,26,09,49,17.80
2018,04,26,09,50,17.90
2018,04,26,09,51,17.90
2018,04,26,09,52,18.00
2018,04,26,09,53,18.00
2018,04,26,09,54,18.00
2018,04,26,09,55,18.00
2018,04,26,09,56,18.10
2018,04,26,09,57,18.10
2018,04,26,09,58,18.10
2018,04,26,09,59,18.20
2018,04,26,10,00,18.20
2018,04,26,10,01,18.30
2018,04,26,10,02,18.30
2018,04,26,10,03,18.40
2018,04,26,10,04,18.50
2018,04,26,10,05,18.60
2018,04,26,10,06,18.60
2018,04,26,10,07,18.60
2018,04,26,10,08,18.60
2018,04,26,10,09,18.60
2018,04,26,10,10,18.70
2018,04,26,10,11,18.80
2018,04,26,10,12,18.80
2018,04,26,10,13,18.90
2018,04,26,10,14,19.10
2018,04,26,10,15,19.10
2018,04,26,10,16,19.20
2018,04,26,10,17,19.10
2018,04,26,10,18,19.10
2018,04,26,10,19,19.10
2018,04,26,10,20,19.10
2018,04,26,10,21,19.10
2018,04,26,10,22,19.10
2018,04,26,10,23,19.20
2018,04,26,10,24,19.30
2018,04,26,10,25,19.40
2018,04,26,10,26,19.40
2018,04,26,10,27,19.40
2018,04,26,10,28,19.50
2018,04,26,10,29,19.60
2018,04,26,10,30,19.70
2018,04,26,10,31,19.80
2018,04,26,10,32,19.80
2018,04,26,10,33,19.90
2018,04,26,10,34,20.00
2018,04,26,10,35,20.00
2018,04,26,10,36,20.10
2018,04,26,10,37,20.20
2018,04,26,10,38,20.30
2018,04,26,10,39,20.40
2018,04,26,10,40,20.50
2018,04,26,10,41,20.60
2018,04,26,10,42,20.70
2018,04,26,10,43,20.70
2018,04,26,10,44,20.70
2018,04,26,10,45,20.80
2018,04,26,10,46,20.80
2018,04,26,10,47,20.90
2018,04,26,10,48,21.00
2018,04,26,10,49,21.10
2018,04,26,10,50,21.10
2018,04,26,10,51,21.00
2018,04,26,10,52,20.90
2018,04,26,10,53,20.90
2018,04,26,10,54,20.90
2018,04,26,10,55,20.80
2018,04,26,10,56,20.90
2018,04,26,10,57,20.90
2018,04,26,10,58,21.00
2018,04,26,10,59,21.10
2018,04,26,11,00,21.10
2018,04,26,11,01,21.20
2018,04,26,11,02,21.20
2018,04,26,11,03,21.30
2018,04,26,11,04,21.30
2018,04,26,11,05,21.30
2018,04,26,11,06,21.30
2018,04,26,11,07,21.20
2018,04,26,11,08,21.20
2018,04,26,11,09,21.30
2018,04,26,11,10,21.30
2018,04,26,11,11,21.40
2018,04,26,11,12,21.30
2018,04,26,11,13,21.30
2018,04,26,11,14,21.40
2018,04,26,11,15,21.40
2018,04,26,11,16,21.40
2018,04,26,11,17,21.30
2018,04,26,11,18,21.30
2018,04,26,11,19,21.30
2018,04,26,11,20,21.40
2018,04,26,11,21,21.40
2018,04,26,11,22,21.40
2018,04,26,11,23,21.40
2018,04,26,11,24,21.40
2018,04,26,11,25,21.40
2018,04,26,11,26,21.40
2018,04,26,11,27,21.40
2018,04,26,11,28,21.40
2018,04,26,11,29,21.50
2018,04,26,11,30,21.50
2018,04,26,11,31,21.50
2018,04,26,11,32,21.40
2018,04,26,11,33,21.30
2018,04,26,11,34,21.20
2018,04,26,11,35,21.10
2018,04,26,11,36,21.10
2018,04,26,11,37,21.10
2018,04,26,11,38,21.10
2018,04,26,11,39,21.10
2018,04,26,11,40,21.30
2018,04,26,11,41,21.40
2018,04,26,11,42,21.50
2018,04,26,11,43,21.50
2018,04,26,11,44,21.50
2018,04,26,11,45,21.40
2018,04,26,11,46,21.20
2018,04,26,11,47,21.10
2018,04,26,11,48,21.10
2018,04,26,11,49,21.20
2018,04,26,11,50,21.20
2018,04,26,11,51,21.20
2018,04,26,11,52,21.20
2018,04,26,11,53,21.30
2018,04,26,11,54,21.50
2018,04,26,11,55,21.70
2018,04,26,11,56,21.80
2018,04,26,11,57,21.90
2018,04,26,11,58,21.90
2018,04,26,11,59,21.90
2018,04,26,12,00,21.90
2018,04,26,12,01,21.90
2018,04,26,12,02,21.90
2018,04,26,12,03,22.00
2018,04,26,12,04,22.10
2018,04,26,12,05,22.20
2018,04,26,12,06,22.20
2018,04,26,12,07,22.10
2018,04,26,12,08,22.10
2018,04,26,12,09,22.10
2018,04,26,12,10,22.00
2018,04,26,12,11,22.00
2018,04,26,12,12,22.10
2018,04,26,12,13,22.20
2018,04,26,12,14,22.30
2018,04,26,12,15,22.40
2018,04,26,12,16,22.50
2018,04,26,12,17,22.60
2018,04,26,12,18,22.70
2018,04,26,12,19,22.80
2018,04,26,12,20,22.80
2018,04,26,12,21,22.80
2018,04,26,12,22,22.80
2018,04,26,12,23,22.80
2018,04,26,12,24,22.80
2018,04,26,12,25,22.90
2018,04,26,12,26,22.90
2018,04,26,12,27,22.90
2018,04,26,12,28,22.90
2018,04,26,12,29,22.90
2018,04,26,12,30,22.80
2018,04,26,12,31,22.80
2018,04,26,12,32,22.80
2018,04,26,12,33,22.80
2018,04,26,12,34,22.80
2018,04,26,12,35,22.90
2018,04,26,12,36,22.90
2018,04,26,12,37,23.00
2018,04,26,12,38,23.10
2018,04,26,12,39,23.20
2018,04,26,12,40,23.20
2018,04,26,12,41,23.20
2018,04,26,12,42,23.20
2018,04,26,12,43,23.20
2018,04,26,12,44,23.20
2018,04,26,12,45,23.10
2018,04,26,12,46,23.10
2018,04,26,12,47,23.20
2018,04,26,12,48,23.30
2018,04,26,12,49,23.20
2018,04,26,12,50,23.20
2018,04,26,12,51,23.30
2018,04,26,12,52,23.30
2018,04,26,12,53,23.40
2018,04,26,12,54,23.40
2018,04,26,12,55,23.50
2018,04,26,12,56,23.50
2018,04,26,12,57,23.60
2018,04,26,12,58,23.60
2018,04,26,12,59,23.60
2018,04,26,13,00,23.60
2018,04,26,13,01,23.60
2018,04,26,13,02,23.60
2018,04,26,13,03,23.70
2018,04,26,13,04,23.70
2018,04,26,13,05,23.70
2018,04,26,13,06,23.80
2018,04,26,13,07,23.80
2018,04,26,13,08,23.80
2018,04,26,13,09,23.90
2018,04,26,13,10,23.90
2018,04,26,13,11,24.10
2018,04,26,13,12,24.20
2018,04,26,13,13,24.40
2018,04,26,13,14,24.40
2018,04,26,13,15,24.50
2018,04,26,13,16,24.60
2018,04,26,13,17,24.60
2018,04,26,13,18,24.60
2018,04,26,13,19,24.50
2018,04,26,13,20,24.40
2018,04,26,13,21,24.30
2018,04,26,13,22,24.30
2018,04,26,13,23,24.30
2018,04,26,13,24,24.30
2018,04,26,13,25,24.30
2018,04,26,13,26,24.40
2018,04,26,13,27,24.50
2018,04,26,13,28,24.70
2018,04,26,13,29,24.90
2018,04,26,13,30,25.10
2018,04,26,13,31,25.10
2018,04,26,13,32,25.10
2018,04,26,13,33,25.00
2018,04,26,13,34,25.00
2018,04,26,13,35,25.10
2018,04,26,13,36,25.10
2018,04,26,13,37,25.20
2018,04,26,13,38,25.30
2018,04,26,13,39,25.50
2018,04,26,13,40,25.60
2018,04,26,13,41,25.60
2018,04,26,13,42,25.70
2018,04,26,13,43,25.70
2018,04,26,13,44,25.70
2018,04,26,13,45,25.70
2018,04,26,13,46,25.70
2018,04,26,13,47,25.70
2018,04,26,13,48,25.70
2018,04,26,13,49,25.60
2018,04,26,13,50,25.50
2018,04,26,13,51,25.50
2018,04,26,13,52,25.50
2018,04,26,13,53,25.50
2018,04,26,13,54,25.60
2018,04,26,13,55,25.70
2018,04,26,13,56,25.70
2018,04,26,13,57,25.80
2018,04,26,13,58,25.90
2018,04,26,13,59,26.00
2018,04,26,14,00,26.00
2018,04,26,14,01,26.10
2018,04,26,14,02,26.10
2018,04,26,14,03,26.20
2018,04,26,14,04,26.30
2018,04,26,14,05,26.40
2018,04,26,14,06,26.40
2018,04,26,14,07,26.60
2018,04,26,14,08,26.70
2018,04,26,14,09,26.70
2018,04,26,14,10,26.60
2018,04,26,14,11,26.40
2018,04,26,14,12,26.30
2018,04,26,14,13,26.20
2018,04,26,14,14,26.00
2018,04,26,14,15,25.90
2018,04,26,14,16,25.90
2018,04,26,14,17,25.80
2018,04,26,14,18,25.90
2018,04,26,14,19,25.80
2018,04,26,14,20,25.80
2018,04,26,14,21,25.80
2018,04,26,14,22,25.80
2018,04,26,14,23,25.80
2018,04,26,14,24,25.80
2018,04,26,14,25,25.80
2018,04,26,14,26,25.80
2018,04,26,14,27,25.80
2018,04,26,14,28,25.80
2018,04,26,14,29,25.90
2018,04,26,14,30,26.00
2018,04,26,14,31,26.20
2018,04,26,14,32,26.20
2018,04,26,14,33,26.30
2018,04,26,14,34,26.30
2018,04,26,14,35,26.20
2018,04,26,14,36,26.20
2018,04,26,14,37,26.20
2018,04,26,14,38,26.30
2018,04,26,14,39,26.40
2018,04,26,14,40,26.50
2018,04,26,14,41,26.60
2018,04,26,14,42,26.50
2018,04,26,14,43,26.50
2018,04,26,14,44,26.50
2018,04,26,14,45,26.50
2018,04,26,14,46,26.40
2018,04,26,14,47,26.20
2018,04,26,14,48,26.10
2018,04,26,14,49,25.90
2018,04,26,14,50,25.80
2018,04,26,14,51,25.70
2018,04,26,14,52,25.70
2018,04,26,14,53,25.80
2018,04,26,14,54,25.90
2018,04,26,14,55,25.90
2018,04,26,14,56,25.90
2018,04,26,14,57,25.90
2018,04,26,14,58,25.80
2018,04,26,14,59,25.70
2018,04,26,15,00,25.70
2018,04,26,15,01,25.70
2018,04,26,15,02,25.70
2018,04,26,15,03,25.80
2018,04,26,15,04,25.80
2018,04,26,15,05,25.90
2018,04,26,15,06,26.10
2018,04,26,15,07,26.20
2018,04,26,15,08,26.30
2018,04,26,15,09,26.30
2018,04,26,15,10,26.30
2018,04,26,15,11,26.40
2018,04,26,15,12,26.30
2018,04,26,15,13,26.30
2018,04,26,15,14,26.30
2018,04,26,15,15,26.20
2018,04,26,15,16,26.20
2018,04,26,15,17,26.10
2018,04,26,15,18,26.10
2018,04,26,15,19,26.10
2018,04,26,15,20,26.10
2018,04,26,15,21,26.10
2018,04,26,15,22,26.10
2018,04,26,15,23,26.10
2018,04,26,15,24,26.10
2018,04,26,15,25,26.10
2018,04,26,15,26,26.10
2018,04,26,15,27,26.10
2018,04,26,15,28,26.10
2018,04,26,15,29,26.10
2018,04,26,15,30,26.10
2018,04,26,15,31,26.10
2018,04,26,15,32,26.10
2018,04,26,15,33,26.10
2018,04,26,15,34,26.20
2018,04,26,15,35,26.30
2018,04,26,15,36,26.30
2018,04,26,15,37,26.40
2018,04,26,15,38,26.40
2018,04,26,15,39,26.30
2018,04,26,15,40,26.30
2018,04,26,15,41,26.30
2018,04,26,15,42,26.20
2018,04,26,15,43,26.10
2018,04,26,15,44,26.10
2018,04,26,15,45,26.10
2018,04,26,15,46,26.10
2018,04,26,15,47,26.10
2018,04,26,15,48,26.20
2018,04,26,15,49,26.30
2018,04,26,15,50,26.30
2018,04,26,15,51,26.30
2018,04,26,15,52,26.20
2018,04,26,15,53,26.20
2018,04,26,15,54,26.20
2018,04,26,15,55,26.20
2018,04,26,15,56,26.20
2018,04,26,15,57,26.20
2018,04,26,15,58,26.20
2018,04,26,15,59,26.20
2018,04,26,16,00,26.20
2018,04,26,16,01,26.20
2018,04,26,16,02,26.20
2018,04,26,16,03,26.20
2018,04,26,16,04,26.30
2018,04,26,16,05,26.30
2018,04,26,16,06,26.40
2018,04,26,16,07,26.30
2018,04,26,16,08,26.30
2018,04,26,16,09,26.20
2018,04,26,16,10,26.20
2018,04,26,16,11,26.10
2018,04,26,16,12,26.10
2018,04,26,16,13,26.10
2018,04,26,16,14,26.10
2018,04,26,16,15,26.10
2018,04,26,16,16,26.10
2018,04,26,16,17,26.10
2018,04,26,16,18,26.10
2018,04,26,16,19,26.10
2018,04,26,16,20,26.10
2018,04,26,16,21,26.10
2018,04,26,16,22,26.10
2018,04,26,16,23,26.10
2018,04,26,16,24,26.10
2018,04,26,16,25,26.00
2018,04,26,16,26,26.00
2018,04,26,16,27,25.90
2018,04,26,16,28,25.90
2018,04,26,16,29,25.90
2018,04,26,16,30,25.90
2018,04,26,16,31,26.00
2018,04,26,16,32,25.90
2018,04,26,16,33,26.00
2018,04,26,16,34,26.00
2018,04,26,16,35,26.10
2018,04,26,16,36,26.10
2018,04,26,16,37,26.10
2018,04,26,16,38,26.10
2018,04,26,16,39,26.20
2018,04,26,16,40,26.20
2018,04,26,16,41,26.10
2018,04,26,16,42,26.10
2018,04,26,16,43,26.00
2018,04,26,16,44,25.90
2018,04,26,16,45,25.90
2018,04,26,16,46,25.90
2018,04,26,16,47,25.90
2018,04,26,16,48,25.90
2018,04,26,16,49,25.90
2018,04,26,16,50,25.90
2018,04,26,16,51,25.90
2018,04,26,16,52,25.90
2018,04,26,16,53,25.90
2018,04,26,16,54,26.00
2018,04,26,16,55,26.00
2018,04,26,16,56,26.10
2018,04,26,16,57,26.10
2018,04,26,16,58,26.10
2018,04,26,16,59,26.10
2018,04,26,17,00,26.10
2018,04,26,17,01,26.20
2018,04,26,17,02,26.20
2018,04,26,17,03,26.20
2018,04,26,17,04,26.20
2018,04,26,17,05,26.10
2018,04,26,17,06,26.10
2018,04,26,17,07,26.20
2018,04,26,17,08,26.10
2018,04,26,17,09,26.10
2018,04,26,17,10,26.10
2018,04,26,17,11,26.10
2018,04,26,17,12,26.10
2018,04,26,17,13,26.10
2018,04,26,17,14,26.20
2018,04,26,17,15,26.30
2018,04,26,17,16,26.40
2018,04,26,17,17,26.40
2018,04,26,17,18,26.50
2018,04,26,17,19,26.60
2018,04,26,17,20,26.60
2018,04,26,17,21,26.60
2018,04,26,17,22,26.60
2018,04,26,17,23,26.50
2018,04,26,17,24,26.50
2018,04,26,17,25,26.40
2018,04,26,17,26,26.40
2018,04,26,17,27,26.30
2018,04,26,17,28,26.30
2018,04,26,17,29,26.30
2018,04,26,17,30,26.30
2018,04,26,17,31,26.30
2018,04,26,17,32,26.30
2018,04,26,17,33,26.30
2018,04,26,17,34,26.30
2018,04,26,17,35,26.40
2018,04,26,17,36,26.40
2018,04,26,17,37,26.40
2018,04,26,17,38,26.40